IRNSS-1C

Last updated on Thu Aug 13 2026 00:03:00 GMT+0000 (Coordinated Universal Time)

1 40269U 14061A 26224.61572721 -.00000179 00000+0 00000+0 0 9996 2 40269 6.6565 87.8502 0021492 8.5194 169.2213 1.00267779 43253
UTC large
Height (km)
Speed (km/s)
/
Latitude / Longitude
Inclination (degrees)
Orbital Period (minutes)
Azimuth
Elevation
Range (km)
Doppler Factor

Next 0 passes for location: London (51.5072 / 0.1276)

No passes found over London.
IRNSS-1C